Terug naar catalogus

BREEZE-M DEB

LostHEO
NORAD 43400·DEBRIS·🇷🇺 Russia

Gelanceerd May 17, 2012 vanaf Baikonur Cosmodrome

Loading…

Volgende Passages (komende 24 uur)

TLE

VerouderdSource: Space-Track

Epoch: Feb 18, 2018, 04:26 UTC

1 43400U 12026M   18049.18518875 -.00000128  00000-0  00000+0 0  9998
2 43400  12.8400  17.6679 4101926 308.9841  21.0336  1.76667666  6901

Volg BREEZE-M DEB in realtime met AllMySat

Download on the App Store